Location: Arcueil
(48.7999°N, 2.3326°E)
Time: 10:30:04
(UTC+00:00)

JY1SAT - Visible Passes

Search period start: 10 July 2025 00:00
Search period end: 20 July 2025 00:00
Orbit: 496 x 507 km, 97.5° (Epoch: 09 July)

Date Brightness Start Highest point End Pass type
(mag) Time Alt. Az. Time Alt. Az. Time Alt. Az.
10 Jul ? 21:41:38 10° SW 21:44:15 18° W 21:46:52 10° NW visible
11 Jul ? 21:21:44 10° SSW 21:24:57 29° W 21:28:12 10° NW visible
12 Jul ? 21:02:08 10° S 21:05:42 48° W 21:09:16 10° NNW visible
13 Jul ? 20:42:48 10° SSE 20:46:28 83° WSW 20:50:10 10° NNW visible
14 Jul ? 21:59:54 10° WSW 22:01:27 12° W 22:03:00 10° WNW visible
15 Jul ? 21:39:20 10° SW 21:42:02 19° W 21:44:46 10° NW visible
16 Jul ? 21:19:24 10° SSW 21:22:40 31° W 21:25:59 10° NNW visible
17 Jul ? 20:59:47 10° S 21:03:21 51° W 21:06:58 10° NNW visible
18 Jul ? 20:40:25 10° SSE 20:44:04 88° WSW 20:47:47 10° NNW visible
19 Jul ? 20:21:15 10° SSE 20:24:49 54° ENE 20:28:26 10° N visible
19 Jul ? 21:57:10 10° WSW 21:58:57 13° W 22:00:44 10° WNW visible
